Total_Precipitation_Accumulation
2.11 2.35 2.31 2.17 2.17 2.20 2.38 2.64 2.82 2.65 2.41 2.17 1.89 1.68 1.75 1.86 1.89 1.64 1.57 1.75 1.58 1.35 1.28 1.26 1.25 1.27 1.32 1.36 1.41 1.50 1.56 1.64 1.77 1.97 2.33 2.77 3.16 3.56
2.15 2.29 2.32 2.25 2.27 2.18 2.29 2.53 2.77 2.84 2.50 2.09 1.92 1.76 1.74 1.54 1.68 1.49 1.45 1.57 1.45 1.34 1.27 1.22 1.17 1.19 1.21 1.22 1.18 1.17 1.20 1.22 1.25 1.31 1.42 1.60 1.85 2.18
2.15 2.32 2.43 2.59 2.59 2.44 2.42 2.41 2.55 2.74 2.52 2.17 1.99 1.88 1.72 1.54 1.49 1.37 1.29 1.29 1.26 1.35 1.26 1.14 1.03 1.01 1.06 1.09 1.10 1.07 1.02 1.00 1.03 1.07 1.12 1.21 1.29 1.42
2.37 2.55 2.60 2.63 2.58 2.47 2.50 2.49 2.48 2.69 2.64 2.35 2.20 2.04 1.86 1.64 1.53 1.45 1.27 1.19 1.24 1.47 1.39 1.20 1.07 1.03 1.02 0.98 0.94 0.94 0.97 0.98 0.98 0.97 0.99 1.04 1.08 1.13
2.39 2.45 2.44 2.55 2.48 2.44 2.31 2.31 2.35 2.54 2.74 2.55 2.42 2.38 2.21 1.95 1.79 1.61 1.45 1.43 1.21 1.27 1.31 1.22 1.14 1.06 1.00 0.97 0.97 0.95 0.90 0.87 0.86 0.89 0.92 0.98 1.00 1.01
2.27 2.37 2.42 2.42 2.46 2.57 2.43 2.44 2.60 2.73 2.82 2.75 2.63 2.68 2.60 2.35 2.11 1.87 1.67 1.55 1.39 1.16 1.25 1.25 1.22 1.13 1.04 0.98 0.95 0.94 0.93 0.90 0.85 0.86 0.86 0.87 0.95 1.03
2.15 2.13 2.21 2.41 2.48 2.52 2.32 2.44 2.63 2.64 2.59 2.62 2.59 2.72 2.72 2.60 2.26 1.96 1.83 1.79 1.64 1.42 1.36 1.22 1.20 1.18 1.15 1.15 1.12 1.09 1.00 0.98 0.96 0.92 0.90 0.92 0.97 1.08
2.09 2.00 1.93 1.95 2.04 2.17 2.18 2.19 2.31 2.40 2.45 2.46 2.46 2.54 2.59 2.55 2.41 2.19 2.05 1.95 1.82 1.72 1.76 1.65 1.47 1.45 1.32 1.18 1.23 1.18 1.10 1.05 1.01 0.98 0.96 0.95 0.98 1.10
1.74 1.72 1.51 1.43 1.74 1.83 2.00 1.98 1.87 1.88 1.95 2.13 2.22 2.22 2.38 2.46 2.51 2.31 2.23 2.11 1.90 1.88 1.95 1.89 1.74 1.59 1.36 1.29 1.41 1.25 1.18 1.12 1.08 1.07 1.04 0.98 0.93 0.94
1.53 1.50 1.50 1.52 1.58 1.74 1.81 1.77 1.69 1.64 1.66 1.68 1.76 1.97 2.17 2.38 2.46 2.40 2.41 2.27 2.03 1.91 1.92 1.89 1.74 1.64 1.43 1.38 1.41 1.28 1.18 1.13 1.10 1.13 1.21 1.19 1.03 0.96
1.62 1.68 1.71 1.57 1.62 1.62 1.64 1.61 1.58 1.61 1.62 1.61 1.59 1.75 1.94 2.09 2.32 2.36 2.31 2.22 1.98 1.87 1.88 1.83 1.71 1.71 1.61 1.45 1.31 1.26 1.07 0.97 0.92 0.92 1.04 1.28 1.38 1.22
1.89 1.79 1.70 1.53 1.47 1.42 1.42 1.49 1.43 1.43 1.58 1.60 1.54 1.59 1.71 1.87 2.11 2.12 2.07 2.12 1.94 1.78 1.63 1.68 1.67 1.72 1.70 1.46 1.24 1.11 1.01 0.96 0.90 0.88 1.01 1.33 1.49 1.33
1.91 1.82 1.72 1.58 1.41 1.36 1.31 1.30 1.33 1.44 1.55 1.59 1.64 1.71 1.84 1.93 1.94 1.96 1.99 1.93 1.89 1.66 1.44 1.59 1.59 1.55 1.52 1.37 1.21 1.10 1.01 0.94 0.89 0.89 0.97 1.22 1.48 1.43
2.06 1.96 1.87 1.73 1.49 1.42 1.28 1.25 1.30 1.28 1.37 1.48 1.54 1.63 1.74 1.85 1.96 2.05 2.07 1.97 1.82 1.66 1.61 1.65 1.61 1.56 1.52 1.40 1.23 1.09 1.08 1.04 1.00 0.97 0.95 1.09 1.19 1.47
2.13 2.20 2.02 1.84 1.64 1.49 1.45 1.41 1.32 1.23 1.34 1.46 1.43 1.46 1.57 1.76 2.04 2.23 2.30 2.24 1.97 1.68 1.58 1.56 1.52 1.54 1.58 1.42 1.22 1.09 1.08 1.08 1.06 1.05 1.06 1.08 1.14 1.32
2.06 2.11 1.98 1.83 1.63 1.49 1.50 1.40 1.24 1.21 1.30 1.39 1.43 1.49 1.62 1.75 1.90 2.07 2.27 2.31 2.13 1.69 1.54 1.53 1.53 1.61 1.55 1.42 1.34 1.19 1.08 1.07 1.06 1.10 1.20 1.24 1.33 1.41
2.09 2.13 2.06 1.94 1.81 1.67 1.58 1.56 1.54 1.46 1.39 1.39 1.53 1.58 1.62 1.63 1.70 1.87 2.11 2.20 2.04 1.63 1.44 1.49 1.64 1.74 1.73 1.69 1.53 1.29 1.21 1.11 1.08 1.22 1.36 1.33 1.31 1.32
1.84 2.00 2.03 1.94 1.84 1.79 1.75 1.71 1.67 1.59 1.50 1.50 1.54 1.59 1.58 1.59 1.63 1.74 1.89 2.02 1.99 1.78 1.61 1.53 1.68 1.83 1.78 1.65 1.46 1.33 1.24 1.19 1.20 1.35 1.40 1.36 1.26 1.23
1.58 1.76 1.80 1.77 1.76 1.78 1.78 1.71 1.62 1.60 1.63 1.59 1.53 1.58 1.63 1.64 1.69 1.78 1.84 1.93 1.96 1.93 1.81 1.70 1.69 1.74 1.63 1.34 1.15 1.15 1.21 1.23 1.31 1.36 1.35 1.30 1.18 1.12
1.47 1.59 1.61 1.63 1.69 1.75 1.76 1.74 1.66 1.67 1.71 1.69 1.65 1.68 1.77 1.79 1.76 1.78 1.84 1.87 1.94 1.96 1.92 1.75 1.60 1.54 1.46 1.33 1.22 1.07 1.05 1.17 1.29 1.29 1.28 1.30 1.23 1.24
1.43 1.53 1.59 1.61 1.66 1.74 1.77 1.77 1.76 1.79 1.78 1.80 1.80 1.79 1.87 1.93 1.81 1.74 1.80 1.92 1.92 1.94 1.87 1.68 1.57 1.70 1.75 1.80 1.55 1.19 1.10 1.13 1.21 1.29 1.35 1.44 1.41 1.41
1.61 1.61 1.69 1.72 1.71 1.72 1.74 1.75 1.78 1.80 1.79 1.79 1.82 1.87 1.91 1.91 1.81 1.76 1.76 1.85 1.83 1.79 1.80 1.84 2.00 2.12 2.05 1.94 1.64 1.40 1.34 1.29 1.30 1.28 1.24 1.25 1.25 1.22
1.63 1.64 1.67 1.64 1.63 1.68 1.71 1.71 1.77 1.81 1.80 1.79 1.83 1.87 1.86 1.85 1.79 1.77 1.78 1.80 1.86 1.91 1.99 2.08 2.19 2.17 1.98 1.85 1.70 1.59 1.54 1.53 1.47 1.39 1.31 1.21 1.07 0.99